DECAYED

CZ-2C R/B, 43031 (Decayed)

Orbit data source: Space-Track

CZ-2C R/B, 43031 was space debris in LEO originally from a launch on Fri, 24 Nov 2017 UTC launched from the Xichang Space Center, China (XSC). Debris objects in space refer to the collection of defunct objects orbiting the Earth. Examples of debris include non-operational satellites, rocket bodies, and fragments generated from explosions, collisions, or faulty payload assembly.

Not visible in the next 10 days
Identifier
43031, 2017-075D
Orbit
Decayed
Last TLE update
1 month ago
Origin
Manufacturer
CALT
Mission
Decayed spacecraft
Bus & Motor
CZ-2 STAGE 2, Unknown motor
Mass
~3,800 kg wet, ~3,800 kg dry
Launch date (UTC)
2017-11-24 (7 years ago)
Launch vehicle
Unknown
Launch site
Xichang Space Center, China (XSC)
Object type
Payload
Rocket body
Debris
Shape & HBR
Cyl, 7.49 m
Radar Cross Section
23.715 m², Large (>1 m²)

Expand to show TLE details & history

TLE from 1 month ago
0 CZ-2C R/B
1 43031U 17075D   25100.83766446  .08225284  19611-5  17469-3 0  9997
2 43031  35.2081 350.1144 0024847  18.4172  63.3675 16.44204372410747
Epoch: 2025-04-10T20:06Z
Definitive object data (Epoch: 2025-04-10T20:06:14.209Z)
Latitude
34.97438°
Longitude
-70.47034°
Altitude
147.898 km
Speed
7.828 km/s
True Right ascension
04h 41m 34s
True Declination
34° 47' 53"
Sunlit
Object was in daylight at TLE epoch
Visualization observer readout
Visualization observer readout
Orbital elements
Apogee altitude
174.268 km
Perigee altitude
141.787 km
Semi-major axis
6,536.165 km
Eccentricity
0.0024847
Inclination
35.2081°
RAAN
350.1144°
Arg. of periapsis
18.4172°
True anomaly
63.62237°
Mean anomaly
63.3675°
Eccentric anomaly
63.4949°
Mean motion
4.10732 °/min
BSTAR
0.00017469
Orbital period
87.65 mins
Loading maneuver chart data...
Loading SW <> Apogee altitude chart data...
Loading historical data...
Loading historical data...
Loading historical data...
Loading historical data...
Loading historical data...
Loading historical data...
Loading historical data...
Other satellites on launch #75 in the year 2017 (2017-11-24 UTC)

CZ-2C R/B Visibility forecast

Observer location: undefined°, undefined°

This satellite is decayed
Span
Click to sort rows by Start time (UTC) header in descending order
Start Az.
Max El. time (UTC)
Max El. Az.
Max El.
End time (UTC)
End Az.
|